When you browse on this site, cookies collect data to enhance your experience and personalize the content and advertising you see.
Visit our Privacy Policy to learn more. By continuing to use the site, you agree to this use of cookies and data.
  • In Portugal
  • List of Countries
  • For 7 days
  • Water Temperature
  • Satellite Maps
  • Weather Map
  • Weather Widgets
  • user-avatar
    Login

    Hourly Weather Holdowiec

    Today, 17 June, Monday

    Time Temperature Precipitation Wind Pressure Humidity
    00:00 +18°C° 0 mm 3 mps 747 mmHg 93%
    01:00 +18°C° 0 mm 4 mps 747 mmHg 93%
    02:00 +18°C° 0 mm 3 mps 747 mmHg 92%
    03:00 +17°C° 0 mm 3 mps 747 mmHg 92%
    04:00 +17°C° 0 mm 2 mps 747 mmHg 92%
    05:00 +18°C° 0 mm 2 mps 747 mmHg 87%
    06:00 +18°C° 0 mm 3 mps 748 mmHg 83%
    07:00 +19°C° 0 mm 3 mps 748 mmHg 78%
    08:00 +20°C° 0 mm 3 mps 748 mmHg 71%
    09:00 +21°C° 0 mm 3 mps 748 mmHg 65%
    10:00 +22°C° 0 mm 3 mps 748 mmHg 58%
    11:00 +24°C° 0 mm 3 mps 748 mmHg 56%
    12:00 +24°C° 0 mm 3 mps 748 mmHg 55%
    13:00 +25°C° 0 mm 3 mps 748 mmHg 53%
    14:00 +25°C° 0 mm 3 mps 747 mmHg 55%
    15:00 +25°C° 0 mm 3 mps 747 mmHg 57%
    16:00 +25°C° 0 mm 3 mps 747 mmHg 59%
    17:00 +24°C° 0 mm 3 mps 747 mmHg 65%
    18:00 +22°C° 0 mm 3 mps 747 mmHg 71%
    19:00 +21°C° 0 mm 2 mps 747 mmHg 77%
    20:00 +20°C° 0 mm 2 mps 747 mmHg 80%
    21:00 +19°C° 0 mm 2 mps 747 mmHg 83%
    22:00 +18°C° 0 mm 3 mps 747 mmHg 86%
    23:00 +17°C° 0 mm 3 mps 747 mmHg 89%

    Tomorrow, 18 June, Tuesday

    Time Temperature Precipitation Wind Pressure Humidity
    00:00 +17°C° 0 mm 2 mps 747 mmHg 92%
    01:00 +16°C° 0 mm 2 mps 747 mmHg 95%
    02:00 +16°C° 0 mm 2 mps 747 mmHg 95%
    03:00 +16°C° 0 mm 2 mps 747 mmHg 96%
    04:00 +16°C° 0 mm 3 mps 747 mmHg 96%
    05:00 +17°C° 0 mm 3 mps 747 mmHg 92%
    06:00 +18°C° 0 mm 3 mps 747 mmHg 87%
    07:00 +19°C° 0 mm 4 mps 747 mmHg 83%
    08:00 +20°C° 0 mm 4 mps 747 mmHg 82%
    09:00 +20°C° 0 mm 4 mps 747 mmHg 81%
    10:00 +21°C° 0 mm 4 mps 747 mmHg 80%
    11:00 +22°C° 0 mm 4 mps 746 mmHg 77%
    12:00 +23°C° 0 mm 4 mps 746 mmHg 75%
    13:00 +23°C° 0 mm 4 mps 746 mmHg 72%
    14:00 +25°C° 0 mm 4 mps 745 mmHg 74%
    15:00 +25°C° 0 mm 4 mps 745 mmHg 75%
    16:00 +25°C° 0 mm 4 mps 745 mmHg 77%
    17:00 +23°C° 0.1 mm 4 mps 744 mmHg 79%
    18:00 +23°C° 0.1 mm 4 mps 744 mmHg 82%
    19:00 +22°C° 0.1 mm 3 mps 744 mmHg 84%
    20:00 +22°C° 1 mm 4 mps 744 mmHg 87%
    21:00 +21°C° 1 mm 5 mps 744 mmHg 90%
    22:00 +20°C° 1 mm 5 mps 744 mmHg 93%
    23:00 +20°C° 0 mm 5 mps 744 mmHg 93%

    Day after tomorrow, 19 June, Wednesday

    Time Temperature Precipitation Wind Pressure Humidity
    00:00 +20°C° 0 mm 5 mps 743 mmHg 94%
    01:00 +19°C° 0 mm 4 mps 743 mmHg 95%
    02:00 +19°C° 0.1 mm 4 mps 743 mmHg 96%
    03:00 +19°C° 0.1 mm 3 mps 743 mmHg 96%
    04:00 +18°C° 0.1 mm 3 mps 742 mmHg 97%
    05:00 +19°C° 0 mm 2 mps 742 mmHg 94%
    06:00 +21°C° 0 mm 2 mps 742 mmHg 91%
    07:00 +23°C° 0 mm 2 mps 742 mmHg 88%
    08:00 +24°C° 0.2 mm 1 mps 742 mmHg 82%
    09:00 +25°C° 0.2 mm 1 mps 742 mmHg 77%
    10:00 +27°C° 0.2 mm 1 mps 742 mmHg 71%
    11:00 +27°C° 1.3 mm 2 mps 742 mmHg 69%
    12:00 +28°C° 1.3 mm 2 mps 742 mmHg 67%
    13:00 +28°C° 1.3 mm 2 mps 741 mmHg 65%
    14:00 +29°C° 0.2 mm 2 mps 741 mmHg 63%
    15:00 +29°C° 0.2 mm 2 mps 741 mmHg 61%
    16:00 +29°C° 0.2 mm 1 mps 741 mmHg 59%
    17:00 +28°C° 0.1 mm 1 mps 741 mmHg 65%
    18:00 +27°C° 0.1 mm 1 mps 741 mmHg 71%
    19:00 +25°C° 0.1 mm 1 mps 741 mmHg 77%
    20:00 +24°C° 0 mm 1 mps 741 mmHg 79%
    21:00 +23°C° 0 mm 1 mps 741 mmHg 82%
    22:00 +22°C° 0 mm 1 mps 742 mmHg 85%
    23:00 +21°C° 0 mm 1 mps 742 mmHg 85%

    20 June, Thursday

    Time Temperature Precipitation Wind Pressure Humidity
    00:00 +21°C° 0 mm 1 mps 741 mmHg 85%
    01:00 +21°C° 0 mm 1 mps 741 mmHg 85%
    02:00 +20°C° 0 mm 1 mps 741 mmHg 85%
    03:00 +20°C° 0 mm 1 mps 742 mmHg 85%
    04:00 +20°C° 0 mm 1 mps 742 mmHg 86%
    05:00 +22°C° 0 mm 1 mps 742 mmHg 82%
    06:00 +23°C° 0 mm 1 mps 742 mmHg 78%
    07:00 +25°C° 0 mm 1 mps 742 mmHg 75%
    08:00 +26°C° 0 mm 1 mps 742 mmHg 70%
    09:00 +26°C° 0 mm 0 mps 742 mmHg 65%
    10:00 +27°C° 0 mm 0 mps 742 mmHg 61%
    11:00 +29°C° 0.4 mm 1 mps 742 mmHg 59%
    12:00 +29°C° 0.4 mm 1 mps 742 mmHg 58%
    13:00 +30°C° 0.4 mm 1 mps 742 mmHg 56%
    14:00 +28°C° 0.9 mm 1 mps 742 mmHg 63%
    15:00 +27°C° 0.9 mm 2 mps 742 mmHg 70%
    16:00 +25°C° 0.9 mm 2 mps 742 mmHg 77%
    17:00 +25°C° 0.4 mm 2 mps 742 mmHg 78%
    18:00 +24°C° 0.4 mm 1 mps 742 mmHg 79%
    19:00 +23°C° 0.4 mm 1 mps 742 mmHg 79%
    20:00 +22°C° 0.2 mm 1 mps 742 mmHg 83%
    21:00 +21°C° 0.2 mm 1 mps 742 mmHg 86%
    22:00 +20°C° 0.2 mm 1 mps 742 mmHg 90%
    23:00 +20°C° 0 mm 1 mps 742 mmHg 91%

    21 June, Friday

    Time Temperature Precipitation Wind Pressure Humidity
    00:00 +20°C° 0 mm 1 mps 742 mmHg 92%
    01:00 +20°C° 0 mm 1 mps 742 mmHg 93%
    02:00 +20°C° 0 mm 1 mps 742 mmHg 93%
    03:00 +18°C° 0 mm 0 mps 742 mmHg 94%
    04:00 +18°C° 0 mm 0 mps 742 mmHg 94%
    05:00 +21°C° 0 mm 1 mps 743 mmHg 91%
    06:00 +22°C° 0 mm 1 mps 743 mmHg 88%
    07:00 +23°C° 0 mm 2 mps 743 mmHg 85%
    08:00 +25°C° 0 mm 1 mps 743 mmHg 79%
    09:00 +26°C° 0 mm 1 mps 743 mmHg 73%
    10:00 +27°C° 0 mm 1 mps 743 mmHg 67%
    11:00 +28°C° 0 mm 1 mps 743 mmHg 63%
    12:00 +29°C° 0 mm 1 mps 743 mmHg 59%
    13:00 +30°C° 0 mm 1 mps 742 mmHg 55%
    14:00 +30°C° 0.1 mm 1 mps 742 mmHg 56%
    15:00 +30°C° 0.1 mm 1 mps 742 mmHg 56%
    16:00 +28°C° 0.1 mm 0 mps 742 mmHg 56%
    17:00 +27°C° 0 mm 0 mps 742 mmHg 61%
    18:00 +26°C° 0 mm 0 mps 742 mmHg 66%
    19:00 +26°C° 0 mm 1 mps 742 mmHg 71%
    20:00 +25°C° 0.2 mm 1 mps 742 mmHg 74%
    21:00 +24°C° 0.2 mm 1 mps 742 mmHg 77%
    22:00 +23°C° 0.2 mm 1 mps 742 mmHg 81%
    23:00 +22°C° 0.1 mm 1 mps 742 mmHg 83%

    22 June, Saturday

    Time Temperature Precipitation Wind Pressure Humidity
    00:00 +22°C° 0.1 mm 1 mps 742 mmHg 86%
    01:00 +21°C° 0.1 mm 1 mps 742 mmHg 89%
    02:00 +21°C° 0 mm 1 mps 742 mmHg 90%
    03:00 +20°C° 0 mm 1 mps 742 mmHg 91%
    04:00 +20°C° 0 mm 1 mps 741 mmHg 92%
    05:00 +21°C° 0 mm 1 mps 741 mmHg 88%
    06:00 +23°C° 0 mm 1 mps 742 mmHg 84%
    07:00 +24°C° 0 mm 1 mps 742 mmHg 80%
    08:00 +26°C° 0 mm 2 mps 741 mmHg 75%
    09:00 +27°C° 0 mm 2 mps 741 mmHg 70%
    10:00 +28°C° 0 mm 2 mps 741 mmHg 65%
    11:00 +29°C° 0 mm 2 mps 741 mmHg 60%
    12:00 +30°C° 0 mm 1 mps 741 mmHg 55%
    13:00 +31°C° 0 mm 1 mps 741 mmHg 50%
    14:00 +31°C° 0 mm 1 mps 740 mmHg 51%
    15:00 +31°C° 0 mm 1 mps 740 mmHg 52%
    16:00 +31°C° 0 mm 1 mps 740 mmHg 53%
    17:00 +29°C° 0.4 mm 2 mps 740 mmHg 62%
    18:00 +27°C° 0.4 mm 3 mps 740 mmHg 70%
    19:00 +26°C° 0.4 mm 3 mps 740 mmHg 78%
    20:00 +24°C° 0.4 mm 3 mps 740 mmHg 81%
    21:00 +22°C° 0.4 mm 4 mps 741 mmHg 84%
    22:00 +20°C° 0.4 mm 4 mps 741 mmHg 87%
    23:00 +19°C° 0 mm 4 mps 741 mmHg 87%
    Show more